Weather History for Luqa, Malta

Change the Weather History Date:

Sunday, May 26, 2013

  Actual Average Record
Temperature  
Mean Temperature 66 °F -  
Max Temperature 73 °F 81 °F 82 °F (2007)
Min Temperature 60 °F 64 °F 59 °F (2012)
Cooling Degree Days 2    
Growing Degree Days 16 (Base 50)    
Moisture  
Dew Point 48 °F    
Average Humidity 51    
Maximum Humidity 72    
Minimum Humidity 25    
Precipitation  
Precipitation 0.00 in 0.00 in - ()
Sea Level Pressure  
Sea Level Pressure 30.04 in    
Wind  
Wind Speed 11 mph ()    
Max Wind Speed 23 mph    
Max Gust Speed -    
Visibility 11.6 miles    
Events      
Averages and records for this station are not official NWS values.
T = Trace of Precipitation, MM = Missing Value Source: Averaged Metar Reports

Daily Weather History Graph

Daily Weather History Graph

Search for Another Location

Airport:

Trip Planner

Search our weather history database for the weather conditions in past years. The results will help you decide how hot, cold, wet, or windy it might be!

Date:

Astronomy

May. 26, 2013 Rise Set
Actual Time 5:49 AM CEST 8:09 PM CEST
Civil Twilight 5:20 AM CEST 8:38 PM CEST
Nautical Twilight 4:44 AM CEST 9:14 PM CEST
Astronomical Twilight 4:05 AM CEST 9:53 PM CEST
Moon 9:40 PM CEST (5/26) 6:59 AM CEST (5/26)
Length of Visible Light 15h 18m
Length of Day
14h 19m
Full, 98% of the Moon is Illuminated
May 26
Full
May 31
Last Quarter
Jun 8
New
Jun 16
First Quarter
Jun 23
Full

Hourly Weather History & Observations

Time (CEST) Temp. Dew Point Humidity Pressure Visibility Wind Dir Wind Speed Gust Speed Precip Events Conditions
12:15 AM 64.4 °F 46.4 °F 52% 30.01 in - NW 3.5 mph - N/A   Clear
12:45 AM 64.4 °F 46.4 °F 52% 30.01 in - NW 5.8 mph - N/A   Clear
1:15 AM 64.4 °F 42.8 °F 45% 30.01 in - NW 6.9 mph - N/A   Clear
1:45 AM 64.4 °F 46.4 °F 52% 30.01 in - NNW 11.5 mph - N/A   Clear
2:00 AM 64 °F 47 °F 42% 30.01 in 12 mi NW 10.4 mph - -  
2:15 AM 64.4 °F 48.2 °F 56% 30.01 in - NNW 9.2 mph - N/A   Clear
2:45 AM 62.6 °F 48.2 °F 59% 30.01 in - NNW 11.5 mph - N/A   Clear
3:15 AM 62.6 °F 50.0 °F 63% 30.01 in - NNW 9.2 mph - N/A   Clear
3:45 AM 62.6 °F 48.2 °F 59% 30.01 in - North 8.1 mph - N/A   Clear
4:15 AM 62.6 °F 46.4 °F 55% 29.98 in - North 9.2 mph - N/A   Clear
4:45 AM 62.6 °F 48.2 °F 59% 30.01 in - North 10.4 mph - N/A   Clear
5:00 AM 63 °F 48 °F 47% 30.00 in 12 mi North 9.2 mph - -   Scattered Clouds
5:15 AM 62.6 °F 48.2 °F 59% 30.01 in - North 8.1 mph - N/A   Clear
5:45 AM 62.6 °F 46.4 °F 55% 30.01 in - NNW 10.4 mph - N/A   Clear
6:15 AM 62.6 °F 48.2 °F 59% 30.01 in - NNW 12.7 mph - N/A   Clear
6:45 AM 62.6 °F 48.2 °F 59% 30.01 in - North 12.7 mph - N/A   Clear
7:15 AM 64.4 °F 48.2 °F 56% 30.04 in - North 15.0 mph - N/A   Clear
7:45 AM 66.2 °F 48.2 °F 52% 30.04 in - North 13.8 mph - N/A   Clear
8:00 AM 67 °F 46 °F 36% 30.04 in 12 mi North 13.8 mph - -  
8:15 AM 68.0 °F 46.4 °F 46% 30.04 in - North 15.0 mph - N/A   Clear
8:45 AM 68.0 °F 48.2 °F 49% 30.04 in - North 12.7 mph - N/A   Clear
9:15 AM 68.0 °F 50.0 °F 52% 30.06 in - North 15.0 mph - N/A   Clear
9:45 AM 68.0 °F 51.8 °F 56% 30.06 in - North 15.0 mph - N/A   Clear
10:15 AM 69.8 °F 51.8 °F 53% 30.06 in - North 18.4 mph - N/A   Clear
10:45 AM 69.8 °F 53.6 °F 56% 30.04 in - North 19.6 mph - N/A   Clear
11:00 AM 70 °F 53 °F 43% 30.05 in 12 mi North 18.4 mph - -   Clear
11:15 AM 69.8 °F 51.8 °F 53% 30.04 in - North 19.6 mph - N/A   Clear
11:45 AM 69.8 °F 53.6 °F 56% 30.06 in - North 18.4 mph - N/A   Clear
12:15 PM 69.8 °F 53.6 °F 56% 30.06 in - North 21.9 mph - N/A   Clear
12:45 PM 69.8 °F 51.8 °F 53% 30.06 in - North 23.0 mph - N/A   Clear
1:15 PM 69.8 °F 51.8 °F 53% 30.04 in - North 18.4 mph - N/A   Clear
1:45 PM 71.6 °F 50.0 °F 46% 30.04 in - North 21.9 mph - N/A   Clear
2:00 PM 72 °F 50 °F 34% 30.05 in 12 mi North 20.7 mph - -  
2:15 PM 71.6 °F 50.0 °F 46% 30.04 in - North 18.4 mph - N/A   Clear
2:45 PM 71.6 °F 50.0 °F 46% 30.04 in - North 17.3 mph - N/A   Clear
3:15 PM 73.4 °F 48.2 °F 41% 30.04 in - North 15.0 mph - N/A   Clear
3:45 PM 73.4 °F 41.0 °F 31% 30.04 in - North 15.0 mph - N/A   Clear
4:15 PM 73.4 °F 39.2 °F 29% 30.04 in - NNW 16.1 mph - N/A   Clear
4:45 PM 73.4 °F 39.2 °F 29% 30.04 in - North 16.1 mph - N/A   Clear
5:00 PM 72 °F 43 °F 25% 30.04 in 12 mi North 17.3 mph - -  
5:15 PM 71.6 °F 46.4 °F 41% 30.04 in - NW 17.3 mph - N/A   Clear
5:45 PM 71.6 °F 44.6 °F 38% 30.04 in - NW 17.3 mph - N/A   Clear
6:15 PM 69.8 °F 46.4 °F 43% 30.04 in - NNW 17.3 mph - N/A   Clear
6:45 PM 69.8 °F 44.6 °F 40% 30.04 in - NNW 17.3 mph - N/A   Clear
7:15 PM 68.0 °F 46.4 °F 46% 30.04 in - NNW 17.3 mph - N/A   Clear
7:45 PM 66.2 °F 48.2 °F 52% 30.04 in - NNW 16.1 mph - N/A   Clear
8:00 PM 65 °F 48 °F 44% 30.04 in 12 mi NNW 17.3 mph - -  
8:15 PM 64.4 °F 48.2 °F 56% 30.04 in - NNW 13.8 mph - N/A   Clear
8:45 PM 64.4 °F 50.0 °F 59% 30.04 in - NNW 13.8 mph - N/A   Clear
9:15 PM 64.4 °F 50.0 °F 59% 30.04 in - NW 9.2 mph - N/A   Clear
9:45 PM 62.6 °F 50.0 °F 63% 30.06 in - NW 8.1 mph - N/A   Clear
10:15 PM 62.6 °F 50.0 °F 63% 30.06 in - WNW 9.2 mph - N/A   Clear
10:45 PM 60.8 °F 50.0 °F 68% 30.06 in - NNW 9.2 mph - N/A   Clear
11:00 PM 61 °F 51 °F 60% 30.07 in 9 mi NNW 9.2 mph - -   Clear
11:15 PM 60.8 °F 51.8 °F 72% 30.06 in - NW 5.8 mph - N/A   Clear
11:45 PM 60.8 °F 51.8 °F 72% 30.06 in - North 4.6 mph - N/A   Clear